Flag for U.S.A. Weather past 2 weeks in Miami, Florida, U.S.A.

Now
64 °F

Overcast.


Feels Like: 64 °F
Forecast: 63 / 72 °F
Wind: 10 mph from Northwest

Location: Miami International Airport

Current Time: Mar 28, 2015 at 6:24:07 AM

Latest Report: Mar 28, 2015 at 5:53 AM


Visibility: 10 mi

Pressure: 30.03 "Hg

Humidity: 75%

Dew point: 56 °F

Location of MiamiLocation

Historic Weather in Miami — Graph

°F

Miami temperature yesterday

Maximum temperature yesterday: 90 °F (at 1:53 PM)
Minimum temperature yesterday: 68 °F (at 8:58 PM)
Average temperature yesterday: 79 °F

Past Weeks' High & Low Weather Summary

 TemperatureHumidityPressure
High90 °F (Mar 27, 1:53 PM)97% (Mar 25, 5:53 AM)30.19 "Hg (Mar 25, 5:53 AM)
Low66 °F (Mar 18, 3:53 AM)33% (Mar 23, 3:53 PM)29.83 "Hg (Mar 27, 4:53 PM)
Average77 °F70%30.04 "Hg
* Reported Mar 13 4:53 AM — Mar 28 4:53 AM, Miami, Weather by CustomWeather, © 2015

Note: Actual official high and low records may vary slightly from our data, if they occured in-between our weather recording intervals... More about our weather records

Advertising

Miami weather history for previous 24 hours

 ConditionsComfort  
Time TempWeatherWind HumidityBarometerVisibility
4:53 AM
Sat, Mar 28
66 °FPassing clouds.10 mph75%30.01 "Hg10 mi
3:53 AM68 °FPassing clouds.9 mph63%30.00 "Hg10 mi
2:53 AM69 °FPartly cloudy.8 mph76%30.01 "Hg10 mi
1:53 AM71 °FMostly cloudy.8 mph84%30.00 "Hg10 mi
12:53 AM70 °FMostly cloudy.7 mph84%29.98 "Hg10 mi
11:53 PM
Fri, Mar 27
70 °FMostly cloudy.7 mph87%29.96 "Hg10 mi
10:53 PM70 °FMostly cloudy.6 mph87%29.95 "Hg10 mi
9:53 PM70 °FMostly cloudy.No wind87%29.95 "Hg10 mi
8:58 PM68 °FHeavy rain. Fog.13 mph93%29.96 "Hg2 mi
7:53 PM70 °FLight rain. Cloudy.14 mph84%29.93 "Hg10 mi
6:53 PM72 °FLight rain. Mostly cloudy.13 mph76%29.91 "Hg7 mi
5:53 PM86 °FBroken clouds.16 mph55%29.86 "Hg10 mi
4:53 PM87 °FPartly sunny.22 mph51%29.83 "Hg10 mi
3:53 PM88 °FBroken clouds.16 mph50%29.83 "Hg10 mi
2:53 PM90 °FOvercast.20 mph43%29.86 "Hg10 mi
1:53 PM90 °FPartly sunny.18 mph41%29.88 "Hg10 mi
12:53 PM88 °FBroken clouds.17 mph48%29.90 "Hg10 mi
11:53 AM87 °FBroken clouds.14 mph57%29.93 "Hg10 mi
10:53 AM85 °FBroken clouds.10 mph63%29.94 "Hg10 mi
9:53 AM81 °FPartly sunny.13 mph74%29.95 "Hg10 mi
8:53 AM79 °FScattered clouds.9 mph79%29.95 "Hg10 mi
7:53 AM76 °FPassing clouds.8 mph85%29.94 "Hg10 mi
6:53 AM75 °FPassing clouds.5 mph82%29.93 "Hg10 mi
Weather by CustomWeather, © 2015

See weather overviewHow to use our weather pages